Theta_e
338 346 351 348 348 349 348 348 347 347 346 345 345 342 343 337 336 339 341 359 359 359 360 358 360 361 362 363 364 367 369 366 364 363 360 360 359 359 358 358 358 357 355
348 350 346 347 346 347 346 346 347 346 343 345 343 346 346 348 345 344 344 348 360 361 362 364 364 364 362 363 366 369 368 367 365 364 361 360 358 359 357 359 359 356 357
341 346 350 350 343 348 349 350 349 350 345 346 343 345 347 348 349 348 346 347 352 362 364 366 365 363 364 363 367 367 368 367 365 362 356 353 354 354 356 358 359 357 355
350 346 346 349 358 358 355 350 349 348 342 342 342 344 345 349 348 349 351 350 350 350 359 366 365 363 361 365 367 369 369 367 361 355 351 350 349 352 355 358 360 357 356
344 346 343 347 356 353 347 351 351 349 347 343 344 343 345 347 348 352 347 349 351 352 351 359 364 364 364 368 369 370 369 363 357 352 348 348 350 353 357 360 358 356 355
335 336 343 351 350 348 346 353 350 353 352 350 350 344 344 346 348 349 346 351 350 352 353 353 356 358 365 366 368 370 366 361 357 353 350 349 351 356 359 358 356 356 355
337 343 351 345 344 351 351 351 352 353 351 350 345 346 344 345 341 339 340 343 345 345 345 346 343 347 360 364 365 366 365 360 357 354 351 352 355 358 357 356 355 355 354
353 349 353 350 348 343 348 353 354 353 352 347 340 341 330 335 339 338 339 345 343 344 345 343 348 347 355 360 361 363 362 360 358 355 353 354 357 358 356 355 354 353 352
350 350 351 348 335 337 340 345 354 354 348 352 350 337 328 324 330 336 338 340 338 341 342 343 344 346 354 354 359 358 359 358 357 355 354 357 358 357 356 355 354 352 351
349 349 351 351 337 331 336 349 357 356 351 337 344 344 335 333 325 323 333 335 339 338 343 343 341 346 346 354 359 359 357 356 356 355 355 358 358 356 355 354 353 351 351
350 351 350 350 352 350 349 352 353 355 346 332 333 336 338 337 333 326 324 327 334 337 341 339 340 339 346 348 350 355 355 353 353 353 356 358 357 356 355 354 353 350 349
348 349 352 351 353 346 344 352 352 355 354 333 335 340 337 336 334 330 328 330 329 333 340 338 339 340 343 343 355 357 354 351 349 350 350 355 358 358 356 355 353 351 348
347 345 352 349 352 350 352 353 353 352 353 352 352 352 352 344 337 334 332 331 330 335 334 338 340 341 346 347 352 355 353 349 346 344 345 348 352 356 358 356 354 352 350
347 350 353 352 352 354 354 354 352 352 352 351 348 354 354 350 350 341 336 334 331 331 332 331 343 343 345 351 355 354 348 347 344 342 342 343 345 349 352 356 356 354 353
356 355 353 354 352 353 354 354 352 349 352 354 352 351 352 352 351 350 347 344 339 330 332 340 336 350 351 350 353 352 348 346 344 341 340 340 341 343 346 348 350 352 351
348 353 353 353 353 351 355 349 350 351 351 351 351 350 349 350 350 350 349 347 346 341 333 342 340 345 353 355 354 353 355 347 344 341 338 338 339 340 342 343 344 345 348
347 347 350 350 352 355 353 352 349 349 347 347 350 348 349 350 350 348 350 348 348 345 337 340 344 349 350 351 353 356 353 347 344 340 339 337 336 338 339 340 340 341 343
353 353 352 353 351 352 350 352 349 351 349 345 348 347 348 351 347 350 347 345 345 346 341 336 342 346 344 350 350 351 355 353 346 342 339 337 335 335 335 335 335 336 338
353 354 353 351 350 350 351 354 351 350 350 351 352 351 349 346 347 348 347 345 346 347 347 343 341 345 350 346 347 348 348 348 355 345 337 336 336 334 333 332 331 331 331
352 352 353 351 351 351 351 351 351 350 349 351 352 352 349 350 346 347 347 345 344 343 344 341 341 343 345 345 345 346 346 347 349 354 352 347 341 337 335 332 331 330 327
354 353 352 352 351 348 343 339 345 351 348 348 348 351 347 348 350 347 348 345 344 344 343 341 339 339 341 344 343 346 344 346 347 349 351 351 352 351 351 336 337 334 329
353 351 351 348 344 341 330 333 340 347 346 344 345 344 347 338 341 341 338 339 341 341 338 341 341 340 341 343 346 346 346 343 339 349 348 349 352 350 352 354 341 335 330
350 348 346 341 333 327 323 327 334 346 346 346 344 344 345 334 329 338 344 340 341 338 338 339 337 338 343 344 346 343 341 341 342 348 347 344 348 347 353 352 342 334 329
344 343 335 328 323 321 319 321 329 343 345 339 339 339 328 323 322 328 341 341 341 335 333 334 334 336 339 342 342 346 344 344 345 347 346 338 345 345 349 348 338 336 332
338 335 330 323 318 316 316 321 332 345 335 327 325 329 325 319 320 324 333 329 325 326 330 329 329 330 330 331 333 340 341 338 336 340 342 335 338 340 343 344 344 339 335
329 326 323 323 320 316 315 315 325 340 331 324 320 317 320 317 316 318 328 319 315 318 320 327 332 337 341 339 336 343 339 331 333 332 338 330 332 335 333 341 342 345 344
Wind_Speed
1 5 4 6 3 4 5 3 4 4 3 6 5 5 7 4 5 3 3 14 13 12 11 10 9 9 7 6 5 6 7 5 4 4 5 7 6 2 5 9 12 15 14
3 3 4 4 4 3 1 2 2 1 2 3 2 3 3 5 6 5 1 2 11 11 10 10 9 8 7 6 4 4 5 5 6 7 6 7 6 8 4 3 10 14 15
7 4 2 5 3 4 5 3 4 1 2 2 3 2 3 4 3 7 5 4 5 11 11 11 9 7 6 5 4 5 6 6 7 10 12 9 9 7 6 5 6 13 14
6 3 3 5 4 3 1 2 4 2 4 5 4 4 4 4 5 5 6 5 5 5 7 11 10 6 7 6 6 7 8 9 10 13 12 10 9 7 6 3 11 15 15
5 4 3 5 4 3 2 1 3 3 1 2 3 3 5 5 6 5 5 7 8 4 3 8 11 4 4 8 9 8 11 11 11 13 12 11 9 8 7 12 15 16 15
7 4 3 5 4 4 5 3 5 4 2 2 4 2 3 3 6 15 15 15 21 15 13 9 6 2 3 7 10 9 12 13 12 14 14 12 10 9 13 15 16 16 16
3 4 1 2 6 5 4 4 3 5 3 2 4 4 3 6 11 13 11 14 22 20 15 14 8 10 1 6 8 9 11 14 13 14 14 12 10 10 14 15 16 16 15
6 4 4 2 4 4 6 6 4 3 3 4 2 4 5 6 4 10 9 14 11 13 11 17 19 16 10 2 6 8 9 12 13 14 14 12 11 13 15 14 14 15 15
5 3 1 4 1 2 4 5 3 6 3 4 11 4 2 4 0 3 8 9 7 10 9 15 16 14 13 3 5 5 7 9 12 14 13 13 13 12 14 14 14 13 13
5 5 4 4 4 2 3 3 3 4 4 4 3 8 8 1 5 5 1 5 7 13 11 3 9 9 7 7 6 6 6 6 9 13 13 13 14 14 14 14 14 12 12
5 6 4 3 4 2 3 4 4 6 4 1 2 5 5 4 8 4 4 2 7 4 7 5 7 4 4 7 3 4 4 6 6 10 11 12 13 14 14 13 13 12 12
3 3 5 4 4 3 3 4 2 5 5 4 1 6 4 3 2 2 1 4 2 5 3 8 7 5 4 7 5 4 6 4 6 8 9 9 9 12 13 13 12 11 11
2 5 3 4 2 2 3 1 4 4 3 1 1 3 3 4 5 1 2 1 2 2 4 5 9 5 6 7 4 5 6 5 5 8 9 9 8 9 11 12 12 11 10
4 6 5 5 4 2 1 3 2 4 3 3 7 6 3 4 8 5 4 3 1 2 1 9 4 8 8 6 4 8 4 7 7 8 8 8 9 9 8 9 12 12 11
4 7 7 5 4 4 3 4 2 3 3 3 4 6 3 2 3 3 5 7 5 3 4 4 4 5 5 5 1 4 5 9 9 8 9 7 8 9 9 8 8 10 10
3 6 6 6 6 5 5 5 2 2 2 3 3 5 4 3 4 3 3 2 2 2 1 3 5 5 4 4 4 4 2 10 11 9 9 9 8 7 9 9 8 8 10
6 6 6 6 6 6 6 4 3 2 2 0 2 1 3 3 2 3 3 3 4 1 1 4 2 3 3 4 4 6 3 5 4 9 10 9 9 9 8 8 8 8 8
4 6 5 5 3 4 4 5 5 2 5 5 6 3 4 3 1 3 2 3 2 1 1 2 3 3 3 5 4 5 4 2 4 8 10 9 9 8 10 10 9 9 10
5 4 4 3 3 1 2 5 6 5 5 3 3 5 6 1 3 3 2 3 2 2 2 0 2 2 2 3 4 4 4 5 6 4 6 6 11 10 9 10 11 12 12
5 5 4 4 3 2 3 3 2 4 3 4 2 4 1 4 1 2 2 3 2 4 2 3 3 3 2 3 2 3 6 3 6 6 5 3 6 8 12 14 14 14 14
6 5 5 5 4 6 3 4 3 4 6 2 5 6 6 9 8 2 1 2 2 2 3 3 3 2 2 3 4 3 3 3 4 2 5 6 5 6 5 5 8 14 12
6 6 5 3 6 5 5 4 3 1 8 4 1 6 5 11 9 9 3 4 4 2 3 1 2 3 3 2 3 3 3 4 4 3 4 6 4 4 4 5 6 10 11
4 4 2 8 6 5 7 4 6 4 5 5 5 6 6 5 5 5 6 5 4 4 1 1 1 2 3 2 2 4 3 2 3 5 3 3 3 4 3 5 10 7 5
2 5 9 8 7 6 12 10 4 6 9 8 7 8 6 5 6 6 5 6 7 6 6 3 3 6 6 5 3 2 2 3 3 3 4 3 3 4 4 4 11 8 10
9 9 8 9 8 6 10 7 3 8 9 8 6 6 6 6 8 8 6 6 6 6 6 7 8 11 10 8 6 1 4 3 2 3 4 2 4 4 4 3 6 8 9
10 8 11 8 10 8 15 16 10 5 8 6 5 6 7 6 6 8 6 6 6 5 7 10 11 13 12 10 7 3 2 2 2 4 4 3 2 3 5 3 5 8 6
Wind_Direction
152 63 250 283 267 238 231 203 180 232 218 46 38 69 109 147 149 179 205 205 213 217 222 230 241 254 263 267 281 302 323 346 359 356 5 8 19 308 230 207 202 197 192
128 160 277 281 288 211 224 285 320 295 110 112 84 121 139 148 176 172 186 234 234 243 245 239 239 256 272 280 304 343 351 1 357 2 23 25 31 39 26 194 189 184 180
19 329 316 357 274 337 321 322 315 86 186 175 190 189 179 190 190 171 189 193 249 250 253 262 264 259 271 297 335 22 22 26 18 22 29 30 48 39 21 16 169 164 164
166 216 48 351 289 330 293 291 275 260 190 213 205 200 211 224 230 233 180 191 209 222 248 256 264 283 326 330 355 43 52 48 42 39 43 51 56 40 26 353 143 142 148
147 100 24 336 358 7 327 34 5 58 11 261 231 197 201 208 226 257 253 162 210 215 227 233 237 245 349 351 355 41 66 60 45 51 51 55 56 49 44 100 119 129 132
132 108 351 265 43 3 349 5 16 341 297 256 293 249 268 228 9 20 10 19 15 3 12 356 341 26 64 22 355 44 69 66 48 53 56 57 52 55 97 108 115 121 124
138 117 255 29 35 344 320 28 9 322 327 358 28 347 12 43 64 67 31 30 32 346 346 25 12 354 273 63 10 39 61 64 55 57 65 59 46 74 99 106 114 119 122
133 153 109 45 40 7 6 3 15 346 343 6 85 69 17 345 9 77 55 76 111 280 353 24 9 356 304 110 70 44 49 61 64 62 69 62 58 100 105 108 115 121 124
117 97 76 129 94 80 35 332 350 37 12 343 50 120 113 176 95 74 53 82 60 5 26 22 359 331 341 336 87 62 54 59 68 73 71 67 87 100 110 115 119 122 126
156 210 182 144 78 43 359 324 3 41 75 14 20 39 38 238 100 356 37 73 66 43 329 56 281 300 346 298 84 97 79 68 70 79 80 80 106 110 115 120 124 127 129
169 182 154 138 125 56 14 16 14 44 65 166 187 105 343 316 75 107 285 25 31 190 282 250 243 264 316 304 287 127 108 98 88 84 80 89 110 113 122 130 133 137 142
212 197 179 151 114 104 350 310 38 42 68 126 25 108 179 223 80 105 7 354 75 249 306 305 291 313 330 304 266 154 139 130 117 102 95 86 100 130 131 138 142 149 153
219 228 166 156 145 182 229 314 21 20 15 35 187 202 140 155 111 183 82 148 281 302 322 288 290 309 292 277 210 208 148 171 156 125 118 116 111 97 145 148 154 161 165
188 195 175 170 187 202 321 45 23 1 18 19 15 5 36 30 133 168 169 148 273 288 302 258 286 262 266 272 113 190 173 202 195 152 140 143 146 138 133 172 171 173 177
173 169 162 163 181 166 160 113 61 334 311 345 49 34 47 30 29 63 136 196 171 162 240 233 255 257 252 257 275 199 198 202 207 181 169 179 172 160 161 173 175 185 189
142 151 168 182 180 195 180 138 105 22 26 337 26 13 10 356 23 9 28 17 15 108 16 217 234 272 264 285 263 297 274 185 199 202 196 189 197 197 183 194 197 199 203
177 179 193 194 197 177 157 161 172 205 118 27 316 309 309 343 8 1 17 23 27 114 109 300 290 297 292 269 319 300 155 220 188 217 208 224 204 202 211 206 209 208 214
164 193 181 167 176 180 181 179 187 208 177 224 234 221 256 252 196 70 53 21 64 75 144 299 301 328 352 4 338 287 357 340 216 208 223 235 240 214 212 220 215 216 217
179 167 147 155 141 225 257 206 185 227 233 229 245 224 219 193 165 180 115 75 34 59 47 39 321 318 328 336 352 10 6 342 23 35 239 245 247 243 233 228 228 221 214
193 193 190 184 172 230 5 23 244 240 291 289 352 355 249 103 80 184 121 121 57 23 28 0 4 337 5 319 45 17 352 340 354 352 17 21 273 235 233 229 221 226 230
193 191 191 187 179 96 57 14 327 284 233 291 5 30 45 43 347 343 110 33 48 31 7 4 341 337 306 353 18 322 343 321 324 347 346 340 332 346 342 228 238 227 223
198 192 196 174 103 89 44 37 340 8 92 110 74 71 58 34 17 7 328 93 116 87 341 332 304 332 316 332 324 341 343 0 348 332 352 319 339 339 343 342 298 230 229
183 180 155 107 86 68 9 10 26 57 103 110 79 34 64 37 11 14 2 37 28 49 328 194 307 285 297 284 336 335 347 330 276 295 344 303 355 348 331 328 329 342 281
152 88 88 83 75 25 357 345 356 84 86 65 71 92 92 55 21 7 34 48 73 47 21 2 327 296 283 299 323 294 285 299 305 328 10 7 336 325 309 346 27 354 340
82 83 85 86 79 36 358 357 63 105 104 89 71 78 89 63 15 23 58 54 36 11 339 338 307 288 289 275 239 51 12 21 329 295 11 41 320 324 319 350 356 355 340
83 88 90 72 65 52 24 31 43 104 108 114 103 86 73 95 63 42 66 53 38 349 344 349 1 31 44 61 90 74 53 31 345 351 323 23 315 19 329 319 343 345 358